Simultaneous Nadir Overpasses (SNOs) Predictions

Prediction of SNOs over PacNW region [( 10.00, 139.50) to ( 22.70, 165.60)] between AQUA and NPP Satellites:

Table of predicted SNOs over PacNW region for the next 30.0 days since TLE Epoch: 1/20/2017
Index Date (AQUA) Time (AQUA) AQUA Lat,Lon Date (NPP) Time (NPP) NPP Lat,Lon Distance(km) Time Diff (sec)
1 01/24/2017 15:59:09 22.58, 147.49 01/24/2017 16:02:07 23.24, 144.48 316.79 178
2 02/01/2017 15:09:47 22.59, 159.85 02/01/2017 15:11:20 23.16, 157.16 282.71 93
3 02/04/2017 03:31:38 22.66, 147.52 02/04/2017 03:28:09 24.74, 145.18 332.45 209
4 02/09/2017 15:59:16 22.59, 147.49 02/09/2017 16:01:59 23.23, 144.50 314.07 163




NCC Satellite Simultaneous Nadir Overpasses (SNOs) Prediction Service
